Terug naar catalogus

SHIYAN 32-01

ActiefWetenschapVLEO
NORAD 66376·PAYLOAD·🇨🇳 China

Gelanceerd Nov 8, 2025 vanaf Yellow Sea Launch Area

Loading…

Volgende Passages (komende 24 uur)

TLE

VersSource: Space-Track

Epoch: Sep 14, 2026, 13:57 UTC

1 66376U 25255A   26257.58168311  .00023910  00000-0  34731-3 0  9998
2 66376  52.9912 294.0380 0007858 201.3942 158.6740 15.55669577 48114

Volg SHIYAN 32-01 in realtime met AllMySat

Download on the App Store